World > North America > United States > Iowa

Hourly Newell, IA Regional Weather

Feedback E-mail the Weather

Quick WX

Newell, IA Weather Maps

°F °C°F °C
Newell Weather Map
UTC Time: 7/4/2022, 03:42
Your Time:

Newell, IA Regional Weather

Expires:202207040400;;643655
ASUS43 KFSD 040310
RWRFSD

WEATHER ROUNDUP FOR SE SOUTH DAKOTA/SW MINNESOTA/NW IOWA
NATIONAL WEATHER SERVICE SIOUX FALLS SD
1000 PM CDT SUN JUL 03 2022

NOTE: "FAIR" INDICATES FEW OR NO CLOUDS BELOW 12,000 FEET WITH NO
SIGNIFICANT WEATHER AND OR OBSTRUCTIONS TO VISIBILITY.



IAZ001>003-012>014-020>022-031-032-NEZ013-014-SDZ071-040400-
NORTHWEST IOWA
  
CITY           SKY/WX    TMP DP  RH WIND       PRES   REMARKS
CHEROKEE       CLEAR     76  67  72 S8        29.96S                  
DENISON        CLEAR     75  75 100 SE7       29.99R                  
ESTHERVILLE    CLEAR     76  66  71 S8        29.96R                  
LE MARS        CLEAR    135 N/A N/A SE8       29.92S                  
MAURICE        FAIR      75  68  78 S10       29.92S                  
SHELDON        CLEAR     75  68  78 S9        29.94R                  
SIOUX CITY     PTCLDY    80  69  69 S10       29.93R                  
SPENCER        CLEAR     77  67  71 S9        29.96S                  
STORM LAKE     CLEAR     75  68  78 S9        29.99R                  
$$
 
ABBREVIATIONS USED IN REMARKS
   TC - TEMPERATURE IN CELSIUS
  WCI - WIND CHILL INDEX
   HX - HEAT INDEX
  VSB - VISIBILITY

  

SKY/WX - Weather  TMP - Temperature  DP - Dew Point  RH - Humidity
WIND - Wind Direction/Speed PRES - Barometric Pressure VSB - Visibility
WCI - Wind Chill Index E13G22 Wind - East Wind 13 mph/Gusts of 22 mph

Trending Headlines

Newell Radar Loop



Newell Quick Facts


National Two Day Weather Forecast


E-mail the Newell Weather Forecast

Voice your opinion or tell us about page issues...